| time (UTC) | temp F | wind direction | speed knots | gust knots | rain 1hr in | rain 24hr in | rain mn in | humidity % | barometer mb |
| 20260508071026 | 67 | 263 | 7.0 | 20.0 | 0.00 | 0.00 | 0.00 | 25 | 1010.3 |
| 20260508070523 | 66 | 211 | 10.4 | 20.0 | 0.00 | 0.00 | 0.00 | 25 | 1010.3 |
| 20260508070022 | 66 | 239 | 6.1 | 15.6 | 0.00 | 0.00 | 0.00 | 25 | 1010.4 |
| 20260508065521 | 67 | 254 | 10.4 | 15.6 | 0.00 | 0.00 | 0.00 | 25 | 1010.3 |
| 20260508065021 | 67 | 238 | 7.8 | 13.0 | 0.00 | 0.00 | 0.00 | 25 | 1010.4 |
| 20260508064522 | 67 | 234 | 6.1 | 18.2 | 0.00 | 0.00 | 0.00 | 25 | 1010.3 |
| 20260508064021 | 67 | 239 | 8.7 | 17.4 | 0.00 | 0.00 | 0.00 | 25 | 1010.3 |
| 20260508063526 | 67 | 242 | 7.0 | 17.4 | 0.00 | 0.00 | 0.00 | 25 | 1010.2 |
| 20260508063020 | 67 | 230 | 9.6 | 16.5 | 0.00 | 0.00 | 0.00 | 24 | 1010.2 |
| 20260508062520 | 67 | 236 | 8.7 | 16.5 | 0.00 | 0.00 | 0.00 | 24 | 1010.0 |
| 20260508062020 | 67 | 252 | 7.8 | 18.2 | 0.00 | 0.00 | 0.00 | 23 | 1010.0 |
| 20260508061521 | 67 | 221 | 9.6 | 18.2 | 0.00 | 0.00 | 0.00 | 23 | 1010.0 |
| 20260508061021 | 67 | 217 | 10.4 | 16.5 | 0.00 | 0.00 | 0.00 | 23 | 1010.0 |
| 20260508060523 | 67 | 225 | 7.8 | 15.6 | 0.00 | 0.00 | 0.00 | 24 | 1010.1 |
| 20260508060021 | 68 | 242 | 7.8 | 15.6 | 0.00 | 0.00 | 0.00 | 25 | 1010.1 |
| 20260508055520 | 68 | 221 | 8.7 | 15.6 | 0.00 | 0.00 | 0.00 | 25 | 1010.2 |
| 20260508055023 | 68 | 241 | 7.0 | 16.5 | 0.00 | 0.00 | 0.00 | 25 | 1010.1 |
| 20260508054519 | 68 | 211 | 7.8 | 16.5 | 0.00 | 0.00 | 0.00 | 25 | 1010.1 |
| 20260508054020 | 68 | 190 | 9.6 | 15.6 | 0.00 | 0.00 | 0.00 | 25 | 1010.1 |
| 20260508053519 | 68 | 198 | 10.4 | 15.6 | 0.00 | 0.00 | 0.00 | 25 | 1010.0 |
| 20260508053019 | 68 | 175 | 8.7 | 16.5 | 0.00 | 0.00 | 0.00 | 26 | 1010.0 |
| 20260508052519 | 68 | 223 | 11.3 | 16.5 | 0.00 | 0.00 | 0.00 | 26 | 1010.0 |
| 20260508052018 | 68 | 236 | 10.4 | 17.4 | 0.00 | 0.00 | 0.00 | 27 | 1010.0 |
| 20260508051518 | 68 | 254 | 7.8 | 21.7 | 0.00 | 0.00 | 0.00 | 27 | 1010.0 |
| 20260508051020 | 68 | 187 | 9.6 | 16.5 | 0.00 | 0.00 | 0.00 | 27 | 1010.0 |
| 20260508050519 | 69 | 196 | 9.6 | 16.5 | 0.00 | 0.00 | 0.00 | 27 | 1010.0 |
| 20260508050018 | 69 | 236 | 9.6 | 18.2 | 0.00 | 0.00 | 0.00 | 26 | 1010.1 |
| 20260508045518 | 69 | 202 | 8.7 | 18.2 | 0.00 | 0.00 | 0.00 | 26 | 1010.1 |
| 20260508045017 | 69 | 205 | 9.6 | 17.4 | 0.00 | 0.00 | 0.00 | 26 | 1010.0 |
| 20260508044517 | 69 | 190 | 9.6 | 20.0 | 0.00 | 0.00 | 0.00 | 27 | 1010.0 |
| 20260508044021 | 69 | 205 | 13.0 | 20.0 | 0.00 | 0.00 | 0.00 | 27 | 1009.9 |
| 20260508043520 | 69 | 198 | 8.7 | 15.6 | 0.00 | 0.00 | 0.00 | 27 | 1010.0 |
| 20260508043016 | 69 | 234 | 10.4 | 15.6 | 0.00 | 0.00 | 0.00 | 27 | 1009.8 |
| 20260508042516 | 70 | 213 | 8.7 | 17.4 | 0.00 | 0.00 | 0.00 | 26 | 1009.8 |
| 20260508042015 | 70 | 246 | 11.3 | 17.4 | 0.00 | 0.00 | 0.00 | 26 | 1009.8 |
| 20260508041516 | 70 | 168 | 9.6 | 16.5 | 0.00 | 0.00 | 0.00 | 27 | 1009.8 |
| 20260508041015 | 70 | 186 | 9.6 | 17.4 | 0.00 | 0.00 | 0.00 | 27 | 1009.8 |
| 20260508040517 | 70 | 222 | 9.6 | 17.4 | 0.00 | 0.00 | 0.00 | 27 | 1009.6 |
| 20260508040018 | 71 | 198 | 9.6 | 16.5 | 0.00 | 0.00 | 0.00 | 27 | 1009.6 |
| 20260508035515 | 71 | 210 | 7.8 | 17.4 | 0.00 | 0.00 | 0.00 | 27 | 1009.5 |
| 20260508035017 | 71 | 181 | 11.3 | 17.4 | 0.00 | 0.00 | 0.00 | 26 | 1009.4 |
| 20260508034518 | 71 | 182 | 8.7 | 17.4 | 0.00 | 0.00 | 0.00 | 25 | 1009.4 |
| 20260508034015 | 72 | 193 | 8.7 | 17.4 | 0.00 | 0.00 | 0.00 | 21 | 1009.4 |
| 20260508033513 | 72 | 238 | 5.2 | 13.0 | 0.00 | 0.00 | 0.00 | 21 | 1009.3 |
| 20260508033019 | 72 | 232 | 4.3 | 13.9 | 0.00 | 0.00 | 0.00 | 20 | 1009.2 |
| 20260508032518 | 72 | 239 | 7.8 | 17.4 | 0.00 | 0.00 | 0.00 | 20 | 1009.2 |
| 20260508032012 | 72 | 327 | 8.7 | 17.4 | 0.00 | 0.00 | 0.00 | 20 | 1009.0 |
| 20260508031514 | 73 | 242 | 6.1 | 15.6 | 0.00 | 0.00 | 0.00 | 19 | 1008.9 |
| 20260508031013 | 73 | 211 | 6.1 | 18.2 | 0.00 | 0.00 | 0.00 | 17 | 1008.9 |
| 20260508030513 | 73 | 214 | 5.2 | 18.2 | 0.00 | 0.00 | 0.00 | 18 | 1008.8 |
| 20260508030013 | 73 | 240 | 4.3 | 12.2 | 0.00 | 0.00 | 0.00 | 17 | 1008.7 |
| 20260508025513 | 74 | 277 | 2.6 | 13.9 | 0.00 | 0.00 | 0.00 | 17 | 1008.7 |
| 20260508025012 | 74 | 214 | 5.2 | 13.9 | 0.00 | 0.00 | 0.00 | 17 | 1008.6 |
| 20260508024518 | 74 | 191 | 4.3 | 16.5 | 0.00 | 0.00 | 0.00 | 17 | 1008.6 |
| 20260508024012 | 74 | 206 | 4.3 | 17.4 | 0.00 | 0.00 | 0.00 | 17 | 1008.6 |
| 20260508023511 | 75 | 281 | 10.4 | 18.2 | 0.00 | 0.00 | 0.00 | 16 | 1008.6 |
| 20260508023021 | 75 | 279 | 7.0 | 18.2 | 0.00 | 0.00 | 0.00 | 16 | 1008.5 |
| 20260508022511 | 76 | 254 | 9.6 | 19.1 | 0.00 | 0.00 | 0.00 | 16 | 1008.5 |
| 20260508022010 | 76 | 239 | 9.6 | 19.1 | 0.00 | 0.00 | 0.00 | 16 | 1008.3 |
| 20260508021511 | 77 | 278 | 8.7 | 15.6 | 0.00 | 0.00 | 0.00 | 15 | 1008.3 |
| 20260508021010 | 77 | 283 | 9.6 | 18.2 | 0.00 | 0.00 | 0.00 | 14 | 1008.3 |
| 20260508020514 | 77 | 265 | 8.7 | 18.2 | 0.00 | 0.00 | 0.00 | 15 | 1008.2 |
| 20260508020010 | 78 | 298 | 10.4 | 16.5 | 0.00 | 0.00 | 0.00 | 16 | 1008.2 |
| 20260508015510 | 78 | 259 | 7.8 | 16.5 | 0.00 | 0.00 | 0.00 | 15 | 1008.3 |
| 20260508015010 | 78 | 265 | 9.6 | 17.4 | 0.00 | 0.00 | 0.00 | 14 | 1008.1 |
| 20260508014509 | 78 | 275 | 9.6 | 19.1 | 0.00 | 0.00 | 0.00 | 15 | 1008.1 |
| 20260508014009 | 79 | 290 | 10.4 | 20.0 | 0.00 | 0.00 | 0.00 | 15 | 1008.0 |
| 20260508013508 | 79 | 240 | 10.4 | 19.1 | 0.00 | 0.00 | 0.00 | 15 | 1008.0 |
| 20260508013114 | 79 | 286 | 9.6 | 19.1 | 0.00 | 0.00 | 0.00 | 15 | 1008.0 |
| 20260508012508 | 79 | 270 | 10.4 | 20.0 | 0.00 | 0.00 | 0.00 | 15 | 1008.0 |
| 20260508012008 | 79 | 236 | 12.2 | 20.0 | 0.00 | 0.00 | 0.00 | 14 | 1008.0 |
| 20260508011508 | 80 | 272 | 11.3 | 20.0 | 0.00 | 0.00 | 0.00 | 13 | 1007.9 |
| 20260508011008 | 80 | 236 | 11.3 | 17.4 | 0.00 | 0.00 | 0.00 | 13 | 1007.8 |
| 20260508010507 | 80 | 268 | 11.3 | 17.4 | 0.00 | 0.00 | 0.00 | 13 | 1007.9 |
| 20260508010012 | 80 | 285 | 8.7 | 16.5 | 0.00 | 0.00 | 0.00 | 14 | 1007.8 |
| 20260508005506 | 80 | 285 | 12.2 | 23.5 | 0.00 | 0.00 | 0.00 | 14 | 1007.8 |
| 20260508005010 | 80 | 258 | 13.0 | 23.5 | 0.00 | 0.00 | 0.00 | 14 | 1007.7 |
| 20260508004516 | 81 | 249 | 11.3 | 20.9 | 0.00 | 0.00 | 0.00 | 13 | 1007.7 |
| 20260508004006 | 81 | 271 | 8.7 | 15.6 | 0.00 | 0.00 | 0.00 | 12 | 1007.8 |
| 20260508003507 | 81 | 262 | 8.7 | 18.2 | 0.00 | 0.00 | 0.00 | 12 | 1007.8 |
| 20260508003006 | 82 | 296 | 8.7 | 19.1 | 0.00 | 0.00 | 0.00 | 12 | 1007.8 |
| 20260508002507 | 82 | 284 | 8.7 | 21.7 | 0.00 | 0.00 | 0.00 | 10 | 1007.8 |
| 20260508002011 | 82 | 263 | 13.0 | 21.7 | 0.00 | 0.00 | 0.00 | 11 | 1007.6 |
| 20260508001505 | 82 | 271 | 11.3 | 19.1 | 0.00 | 0.00 | 0.00 | 10 | 1007.7 |
| 20260508001004 | 82 | 294 | 9.6 | 21.7 | 0.00 | 0.00 | 0.00 | 11 | 1007.6 |
| 20260508000505 | 83 | 265 | 12.2 | 21.7 | 0.00 | 0.00 | 0.00 | 10 | 1007.6 |
| 20260508000004 | 83 | 281 | 4.3 | 16.5 | 0.00 | 0.00 | 0.00 | 12 | 1007.4 |
| 20260507235507 | 83 | 286 | 8.7 | 18.2 | 0.00 | 0.00 | 0.00 | 12 | 1007.5 |
| 20260507235005 | 83 | 269 | 11.3 | 18.2 | 0.00 | 0.00 | 0.00 | 11 | 1007.6 |
| 20260507234503 | 82 | 286 | 10.4 | 17.4 | 0.00 | 0.00 | 0.00 | 12 | 1007.5 |
| 20260507234002 | 83 | 282 | 9.6 | 20.0 | 0.00 | 0.00 | 0.00 | 12 | 1007.7 |
| 20260507233502 | 83 | 240 | 9.6 | 20.0 | 0.00 | 0.00 | 0.00 | 12 | 1007.7 |
| 20260507233002 | 83 | 263 | 12.2 | 20.9 | 0.00 | 0.00 | 0.00 | 11 | 1007.6 |
| 20260507232501 | 83 | 277 | 10.4 | 20.9 | 0.00 | 0.00 | 0.00 | 11 | 1007.5 |
| 20260507232001 | 84 | 237 | 7.8 | 17.4 | 0.00 | 0.00 | 0.00 | 11 | 1007.7 |
| 20260507231501 | 83 | 194 | 9.6 | 17.4 | 0.00 | 0.00 | 0.00 | 11 | 1007.6 |
| 20260507231001 | 84 | 175 | 6.1 | 16.5 | 0.00 | 0.00 | 0.00 | 11 | 1007.6 |
| 20260507230600 | 84 | 217 | 7.8 | 13.9 | 0.00 | 0.00 | 0.00 | 12 | 1007.6 |
| 20260507230101 | 83 | 250 | 6.1 | 20.9 | 0.00 | 0.00 | 0.00 | 12 | 1007.5 |
| 20260507225559 | 84 | 262 | 11.3 | 20.9 | 0.00 | 0.00 | 0.00 | 11 | 1007.7 |
| 20260507225100 | 84 | 188 | 8.7 | 14.8 | 0.00 | 0.00 | 0.00 | 12 | 1007.7 |
| 20260507224606 | 84 | 303 | 4.3 | 13.0 | 0.00 | 0.00 | 0.00 | 12 | 1007.6 |
| 20260507224058 | 83 | 255 | 7.8 | 17.4 | 0.00 | 0.00 | 0.00 | 12 | 1007.8 |
| 20260507223602 | 83 | 279 | 9.6 | 17.4 | 0.00 | 0.00 | 0.00 | 12 | 1007.8 |
| 20260507223059 | 83 | 265 | 8.7 | 17.4 | 0.00 | 0.00 | 0.00 | 12 | 1007.8 |
| 20260507222559 | 83 | 240 | 7.0 | 17.4 | 0.00 | 0.00 | 0.00 | 12 | 1007.9 |
| 20260507222057 | 83 | 219 | 2.6 | 17.4 | 0.00 | 0.00 | 0.00 | 12 | 1007.9 |
| 20260507221555 | 84 | 209 | 7.8 | 17.4 | 0.00 | 0.00 | 0.00 | 12 | 1008.0 |
| 20260507221055 | 84 | 261 | 7.0 | 13.9 | 0.00 | 0.00 | 0.00 | 11 | 1008.0 |
| 20260507220554 | 84 | 206 | 5.2 | 13.0 | 0.00 | 0.00 | 0.00 | 12 | 1008.1 |
| 20260507220054 | 83 | 256 | 7.0 | 14.8 | 0.00 | 0.00 | 0.00 | 13 | 1008.2 |
| 20260507215557 | 83 | 192 | 5.2 | 19.1 | 0.00 | 0.00 | 0.00 | 13 | 1008.2 |
| 20260507215053 | 84 | 217 | 10.4 | 19.1 | 0.00 | 0.00 | 0.00 | 13 | 1008.3 |
| 20260507214553 | 84 | 197 | 3.5 | 12.2 | 0.00 | 0.00 | 0.00 | 13 | 1008.3 |
| 20260507214053 | 84 | 306 | 8.7 | 13.9 | 0.00 | 0.00 | 0.00 | 13 | 1008.4 |
| 20260507213550 | 83 | 191 | 3.5 | 9.6 | 0.00 | 0.00 | 0.00 | 14 | 1008.5 |
| 20260507213051 | 83 | 259 | 3.5 | 13.0 | 0.00 | 0.00 | 0.00 | 14 | 1008.6 |
| 20260507212550 | 83 | 219 | 5.2 | 12.2 | 0.00 | 0.00 | 0.00 | 15 | 1008.6 |
| 20260507212048 | 82 | 189 | 5.2 | 14.8 | 0.00 | 0.00 | 0.00 | 15 | 1008.6 |
| 20260507211551 | 83 | 241 | 8.7 | 15.6 | 0.00 | 0.00 | 0.00 | 15 | 1008.7 |
| 20260507211047 | 82 | 217 | 7.8 | 13.0 | 0.00 | 0.00 | 0.00 | 15 | 1008.7 |
| 20260507210546 | 81 | 192 | 5.2 | 14.8 | 0.00 | 0.00 | 0.00 | 16 | 1008.7 |
| 20260507210111 | 82 | 246 | 8.7 | 14.8 | 0.00 | 0.00 | 0.00 | 15 | 1008.8 |
| 20260507205545 | 82 | 221 | 6.1 | 13.0 | 0.00 | 0.00 | 0.00 | 15 | 1008.7 |
| 20260507205048 | 82 | 215 | 5.2 | 14.8 | 0.00 | 0.00 | 0.00 | 15 | 1009.0 |
| 20260507204546 | 82 | 229 | 4.3 | 13.9 | 0.00 | 0.00 | 0.00 | 15 | 1009.0 |
| 20260507204042 | 82 | 259 | 7.0 | 14.8 | 0.00 | 0.00 | 0.00 | 14 | 1009.2 |
| 20260507203542 | 81 | 213 | 7.0 | 14.8 | 0.00 | 0.00 | 0.00 | 14 | 1009.2 |
| 20260507203042 | 81 | 197 | 7.8 | 12.2 | 0.00 | 0.00 | 0.00 | 15 | 1009.2 |
| 20260507202541 | 81 | 198 | 5.2 | 12.2 | 0.00 | 0.00 | 0.00 | 15 | 1009.3 |
| 20260507202040 | 81 | 220 | 8.7 | 12.2 | 0.00 | 0.00 | 0.00 | 16 | 1009.5 |
| 20260507201539 | 81 | 220 | 7.0 | 13.0 | 0.00 | 0.00 | 0.00 | 16 | 1009.5 |
| 20260507201039 | 80 | 271 | 5.2 | 13.0 | 0.00 | 0.00 | 0.00 | 16 | 1009.5 |
| 20260507200538 | 80 | 196 | 7.8 | 12.2 | 0.00 | 0.00 | 0.00 | 16 | 1009.6 |
| 20260507200052 | 80 | 222 | 5.2 | 15.6 | 0.00 | 0.00 | 0.00 | 15 | 1009.6 |
| 20260507195539 | 79 | 196 | 9.6 | 15.6 | 0.00 | 0.00 | 0.00 | 16 | 1009.6 |
| 20260507195037 | 80 | 171 | 7.8 | 14.8 | 0.00 | 0.00 | 0.00 | 16 | 1009.7 |
| 20260507194536 | 79 | 200 | 7.8 | 13.0 | 0.00 | 0.00 | 0.00 | 16 | 1009.8 |
| 20260507194035 | 80 | 209 | 7.8 | 14.8 | 0.00 | 0.00 | 0.00 | 16 | 1009.8 |
| 20260507193535 | 79 | 213 | 9.6 | 16.5 | 0.00 | 0.00 | 0.00 | 16 | 1009.8 |
| 20260507193101 | 79 | 165 | 5.2 | 13.9 | 0.00 | 0.00 | 0.00 | 15 | 1009.9 |
| 20260507192532 | 78 | 200 | 7.8 | 13.9 | 0.00 | 0.00 | 0.00 | 16 | 1010.0 |
| 20260507192032 | 78 | 194 | 7.8 | 13.9 | 0.00 | 0.00 | 0.00 | 15 | 1010.0 |
| 20260507191532 | 79 | 276 | 5.2 | 12.2 | 0.00 | 0.00 | 0.00 | 15 | 1010.1 |
| 20260507191032 | 78 | 242 | 7.8 | 12.2 | 0.00 | 0.00 | 0.00 | 15 | 1010.3 |
| 20260507190531 | 78 | 200 | 6.1 | 13.9 | 0.00 | 0.00 | 0.00 | 15 | 1010.3 |
| 20260507190034 | 79 | 209 | 7.8 | 17.4 | 0.00 | 0.00 | 0.00 | 15 | 1010.5 |
| 20260507185529 | 78 | 227 | 8.7 | 13.9 | 0.00 | 0.00 | 0.00 | 15 | 1010.5 |
| 20260507185028 | 78 | 189 | 8.7 | 14.8 | 0.00 | 0.00 | 0.00 | 15 | 1010.7 |
| 20260507184527 | 77 | 221 | 6.1 | 18.2 | 0.00 | 0.00 | 0.00 | 16 | 1010.7 |
| 20260507184026 | 78 | 211 | 7.0 | 13.0 | 0.00 | 0.00 | 0.00 | 16 | 1010.8 |
| 20260507183530 | 78 | 242 | 8.7 | 13.0 | 0.00 | 0.00 | 0.00 | 16 | 1010.8 |
| 20260507183036 | 78 | 194 | 7.8 | 13.0 | 0.00 | 0.00 | 0.00 | 15 | 1010.9 |
| 20260507182526 | 78 | 259 | 7.0 | 13.9 | 0.00 | 0.00 | 0.00 | 16 | 1011.0 |
| 20260507182026 | 77 | 275 | 5.2 | 13.9 | 0.00 | 0.00 | 0.00 | 16 | 1010.9 |
| 20260507181525 | 77 | 193 | 6.1 | 11.3 | 0.00 | 0.00 | 0.00 | 16 | 1010.9 |
| 20260507181028 | 77 | 223 | 6.1 | 10.4 | 0.00 | 0.00 | 0.00 | 16 | 1011.0 |
| 20260507180526 | 76 | 231 | 1.7 | 8.7 | 0.00 | 0.00 | 0.00 | 22 | 1011.0 |
| 20260507180026 | 76 | 184 | 3.5 | 8.7 | 0.00 | 0.00 | 0.00 | 23 | 1011.0 |
| 20260507175523 | 77 | 328 | 1.7 | 7.8 | 0.00 | 0.00 | 0.00 | 22 | 1011.0 |
| 20260507175026 | 77 | 188 | 3.5 | 9.6 | 0.00 | 0.00 | 0.00 | 22 | 1011.1 |
| 20260507174521 | 79 | 236 | 4.3 | 9.6 | 0.00 | 0.00 | 0.00 | 23 | 1011.1 |
| 20260507174022 | 78 | 31 | 2.6 | 9.6 | 0.00 | 0.00 | 0.00 | 23 | 1011.1 |
| 20260507173520 | 77 | 350 | 2.6 | 7.0 | 0.00 | 0.00 | 0.00 | 24 | 1011.2 |
| 20260507173019 | 75 | 346 | 0.9 | 7.0 | 0.00 | 0.00 | 0.00 | 26 | 1011.3 |
| 20260507172518 | 74 | 333 | 2.6 | 11.3 | 0.00 | 0.00 | 0.00 | 27 | 1011.3 |
| 20260507172018 | 74 | 293 | 5.2 | 11.3 | 0.00 | 0.00 | 0.00 | 26 | 1011.4 |
| 20260507171516 | 74 | 324 | 3.5 | 9.6 | 0.00 | 0.00 | 0.00 | 25 | 1011.4 |
| 20260507171018 | 74 | 298 | 4.3 | 9.6 | 0.00 | 0.00 | 0.00 | 25 | 1011.4 |
| 20260507170516 | 74 | 234 | 1.7 | 8.7 | 0.00 | 0.00 | 0.00 | 27 | 1011.4 |
| 20260507170014 | 73 | 339 | 2.6 | 7.8 | 0.00 | 0.00 | 0.00 | 27 | 1011.4 |
| 20260507165514 | 72 | 244 | 2.6 | 8.7 | 0.00 | 0.00 | 0.00 | 28 | 1011.5 |
| 20260507165018 | 72 | 229 | 5.2 | 9.6 | 0.00 | 0.00 | 0.00 | 27 | 1011.6 |
| 20260507164613 | 73 | 255 | 4.3 | 9.6 | 0.00 | 0.00 | 0.00 | 28 | 1011.6 |
| 20260507164012 | 72 | 236 | 4.3 | 13.0 | 0.00 | 0.00 | 0.00 | 28 | 1011.7 |
| 20260507163515 | 72 | 194 | 5.2 | 13.0 | 0.00 | 0.00 | 0.00 | 30 | 1011.6 |
| 20260507163012 | 71 | 351 | 2.6 | 10.4 | 0.00 | 0.00 | 0.00 | 30 | 1011.7 |
| 20260507162513 | 70 | 211 | 5.2 | 12.2 | 0.00 | 0.00 | 0.00 | 31 | 1011.7 |
| 20260507162009 | 70 | 265 | 7.8 | 12.2 | 0.00 | 0.00 | 0.00 | 32 | 1011.7 |
| 20260507161512 | 69 | 251 | 7.0 | 11.3 | 0.00 | 0.00 | 0.00 | 33 | 1011.5 |
| 20260507161006 | 69 | 246 | 7.0 | 14.8 | 0.00 | 0.00 | 0.00 | 34 | 1011.6 |
| 20260507160507 | 69 | 249 | 8.7 | 17.4 | 0.00 | 0.00 | 0.00 | 34 | 1011.6 |
| 20260507160008 | 69 | 247 | 7.0 | 13.9 | 0.00 | 0.00 | 0.00 | 35 | 1011.7 |
| 20260507155504 | 68 | 198 | 7.8 | 13.9 | 0.00 | 0.00 | 0.00 | 35 | 1011.7 |
| 20260507155004 | 68 | 285 | 7.0 | 12.2 | 0.00 | 0.00 | 0.00 | 36 | 1011.6 |
| 20260507154503 | 68 | 25 | 5.2 | 11.3 | 0.00 | 0.00 | 0.00 | 36 | 1011.6 |
| 20260507154003 | 67 | 265 | 2.6 | 10.4 | 0.00 | 0.00 | 0.00 | 37 | 1011.6 |
| 20260507153506 | 67 | 261 | 3.5 | 9.6 | 0.00 | 0.00 | 0.00 | 37 | 1011.7 |
| 20260507153009 | 67 | 273 | 6.1 | 12.2 | 0.00 | 0.00 | 0.00 | 38 | 1011.7 |
| 20260507152502 | 67 | 277 | 6.1 | 12.2 | 0.00 | 0.00 | 0.00 | 38 | 1011.7 |
| 20260507152002 | 66 | 269 | 6.1 | 12.2 | 0.00 | 0.00 | 0.00 | 39 | 1011.7 |
| 20260507151504 | 66 | 283 | 7.8 | 12.2 | 0.00 | 0.00 | 0.00 | 39 | 1011.8 |
| 20260507151001 | 66 | 258 | 7.0 | 11.3 | 0.00 | 0.00 | 0.00 | 39 | 1011.8 |
| 20260507150501 | 66 | 276 | 6.1 | 12.2 | 0.00 | 0.00 | 0.00 | 40 | 1011.8 |
| 20260507150101 | 65 | 301 | 7.0 | 13.0 | 0.00 | 0.00 | 0.00 | 41 | 1011.8 |
| 20260507150001 | 65 | 238 | 7.0 | 14.8 | 0.00 | 0.00 | 0.00 | 41 | 1011.9 |
| 20260507145600 | 65 | 263 | 6.1 | 14.8 | 0.00 | 0.00 | 0.00 | 41 | 1011.9 |
| 20260507145100 | 65 | 260 | 3.5 | 10.4 | 0.00 | 0.00 | 0.00 | 41 | 1011.9 |
| 20260507144606 | 64 | 268 | 6.1 | 13.0 | 0.00 | 0.00 | 0.00 | 42 | 1011.8 |
| 20260507144100 | 64 | 263 | 7.0 | 12.2 | 0.00 | 0.00 | 0.00 | 42 | 1011.8 |
| 20260507143600 | 63 | 258 | 7.0 | 13.9 | 0.00 | 0.00 | 0.00 | 43 | 1011.8 |
| 20260507143113 | 63 | 231 | 7.8 | 13.0 | 0.00 | 0.00 | 0.00 | 44 | 1011.7 |
| 20260507142558 | 63 | 230 | 7.0 | 13.0 | 0.00 | 0.00 | 0.00 | 45 | 1011.7 |
| 20260507142058 | 62 | 246 | 7.8 | 13.0 | 0.00 | 0.00 | 0.00 | 45 | 1011.7 |
| 20260507141619 | 62 | 242 | 7.0 | 15.6 | 0.00 | 0.00 | 0.00 | 45 | 1011.7 |
| 20260507141059 | 62 | 267 | 8.7 | 15.6 | 0.00 | 0.00 | 0.00 | 45 | 1011.6 |
| 20260507140558 | 62 | 263 | 7.8 | 12.2 | 0.00 | 0.00 | 0.00 | 45 | 1011.6 |
| 20260507140109 | 62 | 234 | 7.0 | 12.2 | 0.00 | 0.00 | 0.00 | 50 | 1011.7 |
| 20260507135600 | 62 | 224 | 5.2 | 15.6 | 0.00 | 0.00 | 0.00 | 46 | 1011.6 |
| 20260507135057 | 62 | 250 | 8.7 | 15.6 | 0.00 | 0.00 | 0.00 | 47 | 1011.6 |
| 20260507134607 | 61 | 236 | 7.8 | 14.8 | 0.00 | 0.00 | 0.00 | 47 | 1011.5 |
| 20260507134056 | 61 | 259 | 8.7 | 14.8 | 0.00 | 0.00 | 0.00 | 48 | 1011.4 |
| 20260507133556 | 61 | 267 | 8.7 | 15.6 | 0.00 | 0.00 | 0.00 | 47 | 1011.4 |
| 20260507133055 | 61 | 248 | 9.6 | 15.6 | 0.00 | 0.00 | 0.00 | 47 | 1011.4 |
| 20260507132554 | 61 | 240 | 10.4 | 14.8 | 0.00 | 0.00 | 0.00 | 47 | 1011.3 |
| 20260507132053 | 61 | 250 | 6.1 | 15.6 | 0.00 | 0.00 | 0.00 | 47 | 1011.2 |
| 20260507131553 | 61 | 262 | 7.8 | 15.6 | 0.00 | 0.00 | 0.00 | 47 | 1011.2 |
| 20260507131052 | 61 | 211 | 6.1 | 10.4 | 0.00 | 0.00 | 0.00 | 48 | 1011.2 |
| 20260507130551 | 60 | 203 | 6.1 | 11.3 | 0.00 | 0.00 | 0.00 | 48 | 1011.2 |
| 20260507130050 | 60 | 225 | 6.1 | 10.4 | 0.00 | 0.00 | 0.00 | 48 | 1011.2 |
| 20260507125550 | 60 | 225 | 3.5 | 7.0 | 0.00 | 0.00 | 0.00 | 48 | 1011.1 |
| 20260507125051 | 61 | 212 | 2.6 | 6.1 | 0.00 | 0.00 | 0.00 | 48 | 1011.2 |
| 20260507124547 | 61 | 227 | 2.6 | 6.1 | 0.00 | 0.00 | 0.00 | 48 | 1011.2 |
| 20260507124047 | 61 | 234 | 1.7 | 6.1 | 0.00 | 0.00 | 0.00 | 47 | 1011.3 |
| 20260507123547 | 61 | 276 | 1.7 | 4.3 | 0.00 | 0.00 | 0.00 | 46 | 1011.3 |
| 20260507123048 | 61 | 235 | 0.9 | 7.0 | 0.00 | 0.00 | 0.00 | 45 | 1011.3 |
| 20260507122546 | 62 | 225 | 2.6 | 7.0 | 0.00 | 0.00 | 0.00 | 45 | 1011.4 |
| 20260507122047 | 62 | 264 | 3.5 | 8.7 | 0.00 | 0.00 | 0.00 | 45 | 1011.4 |
| 20260507121545 | 62 | 237 | 3.5 | 8.7 | 0.00 | 0.00 | 0.00 | 43 | 1011.4 |
| 20260507121044 | 61 | 225 | 2.6 | 6.1 | 0.00 | 0.00 | 0.00 | 45 | 1011.4 |
| 20260507120544 | 61 | 259 | 3.5 | 8.7 | 0.00 | 0.00 | 0.00 | 45 | 1011.5 |
| 20260507120047 | 61 | 258 | 4.3 | 8.7 | 0.00 | 0.00 | 0.00 | 47 | 1011.5 |
| 20260507115544 | 62 | 259 | 3.5 | 7.8 | 0.00 | 0.00 | 0.00 | 46 | 1011.5 |
| 20260507115044 | 62 | 269 | 5.2 | 8.7 | 0.00 | 0.00 | 0.00 | 46 | 1011.5 |
| 20260507114551 | 61 | 283 | 2.6 | 6.1 | 0.00 | 0.00 | 0.00 | 47 | 1011.5 |
| 20260507114045 | 61 | 264 | 3.5 | 6.1 | 0.00 | 0.00 | 0.00 | 47 | 1011.5 |
| 20260507113542 | 61 | 267 | 3.5 | 6.1 | 0.00 | 0.00 | 0.00 | 47 | 1011.6 |
| 20260507113043 | 61 | 256 | 2.6 | 6.1 | 0.00 | 0.00 | 0.00 | 47 | 1011.5 |
| 20260507112541 | 61 | 268 | 2.6 | 6.1 | 0.00 | 0.00 | 0.00 | 45 | 1011.7 |
| 20260507112041 | 61 | 259 | 1.7 | 4.3 | 0.00 | 0.00 | 0.00 | 43 | 1011.6 |
| 20260507111552 | 61 | 285 | 0.9 | 3.5 | 0.00 | 0.00 | 0.00 | 40 | 1011.6 |
| 20260507111039 | 61 | 277 | 1.7 | 3.5 | 0.00 | 0.00 | 0.00 | 40 | 1011.6 |
| 20260507110539 | 61 | 279 | 1.7 | 3.5 | 0.00 | 0.00 | 0.00 | 40 | 1011.7 |
| 20260507110139 | 62 | 279 | 0.9 | 7.0 | 0.00 | 0.00 | 0.00 | 40 | 1011.7 |
| 20260507105537 | 62 | 260 | 3.5 | 7.0 | 0.00 | 0.00 | 0.00 | 40 | 1011.8 |
| 20260507105037 | 62 | 267 | 2.6 | 4.3 | 0.00 | 0.00 | 0.00 | 40 | 1011.8 |
| 20260507104537 | 62 | 254 | 2.6 | 5.2 | 0.00 | 0.00 | 0.00 | 41 | 1011.8 |
| 20260507104039 | 62 | 261 | 1.7 | 5.2 | 0.00 | 0.00 | 0.00 | 41 | 1011.7 |
| 20260507103536 | 62 | 242 | 3.5 | 5.2 | 0.00 | 0.00 | 0.00 | 40 | 1011.8 |
| 20260507103036 | 62 | 257 | 2.6 | 4.3 | 0.00 | 0.00 | 0.00 | 41 | 1011.8 |
| 20260507102534 | 63 | 267 | 2.6 | 4.3 | 0.00 | 0.00 | 0.00 | 42 | 1011.7 |
| 20260507102034 | 63 | 261 | 1.7 | 7.8 | 0.00 | 0.00 | 0.00 | 42 | 1011.7 |
| 20260507101533 | 64 | 287 | 4.3 | 8.7 | 0.00 | 0.00 | 0.00 | 42 | 1011.8 |
| 20260507101034 | 63 | 279 | 4.3 | 8.7 | 0.00 | 0.00 | 0.00 | 43 | 1011.8 |
| 20260507100532 | 63 | 278 | 5.2 | 8.7 | 0.00 | 0.00 | 0.00 | 42 | 1011.8 |
| 20260507100034 | 63 | 279 | 5.2 | 8.7 | 0.00 | 0.00 | 0.00 | 44 | 1011.8 |
| 20260507095531 | 63 | 285 | 4.3 | 7.8 | 0.00 | 0.00 | 0.00 | 44 | 1011.8 |
| 20260507095033 | 63 | 281 | 2.6 | 7.8 | 0.00 | 0.00 | 0.00 | 39 | 1011.8 |
| 20260507094529 | 63 | 298 | 2.6 | 7.8 | 0.00 | 0.00 | 0.00 | 41 | 1011.9 |
| 20260507094031 | 64 | 23 | 1.7 | 5.2 | 0.00 | 0.00 | 0.00 | 38 | 1011.9 |
| 20260507093527 | 64 | 333 | 1.7 | 5.2 | 0.00 | 0.00 | 0.00 | 39 | 1011.9 |
| 20260507093034 | 64 | 306 | 2.6 | 7.0 | 0.00 | 0.00 | 0.00 | 42 | 1011.9 |
| 20260507092526 | 65 | 328 | 1.7 | 7.0 | 0.00 | 0.00 | 0.00 | 39 | 1011.9 |
| 20260507092025 | 65 | 307 | 3.5 | 7.8 | 0.00 | 0.00 | 0.00 | 42 | 1011.9 |
| 20260507091525 | 65 | 302 | 4.3 | 7.8 | 0.00 | 0.00 | 0.00 | 42 | 1012.0 |
| 20260507091024 | 65 | 294 | 2.6 | 7.0 | 0.00 | 0.00 | 0.00 | 42 | 1011.9 |
| 20260507090522 | 66 | 290 | 0.9 | 7.8 | 0.00 | 0.00 | 0.00 | 41 | 1012.0 |
| 20260507090022 | 66 | 261 | 3.5 | 9.6 | 0.00 | 0.00 | 0.00 | 40 | 1011.9 |
| 20260507085521 | 66 | 278 | 4.3 | 9.6 | 0.00 | 0.00 | 0.00 | 40 | 1012.0 |
| 20260507085022 | 66 | 273 | 6.1 | 9.6 | 0.00 | 0.00 | 0.00 | 40 | 1012.1 |
| 20260507084521 | 66 | 251 | 5.2 | 9.6 | 0.00 | 0.00 | 0.00 | 38 | 1012.1 |
| 20260507084025 | 66 | 257 | 6.1 | 9.6 | 0.00 | 0.00 | 0.00 | 39 | 1012.0 |
| 20260507083519 | 66 | 246 | 4.3 | 10.4 | 0.00 | 0.00 | 0.00 | 40 | 1012.1 |
| 20260507083021 | 67 | 246 | 6.1 | 13.9 | 0.00 | 0.00 | 0.00 | 39 | 1012.1 |
| 20260507082516 | 67 | 258 | 6.1 | 13.9 | 0.00 | 0.00 | 0.00 | 38 | 1012.2 |
| 20260507082016 | 67 | 270 | 7.0 | 13.9 | 0.00 | 0.00 | 0.00 | 38 | 1012.2 |
| 20260507081528 | 67 | 265 | 6.1 | 12.2 | 0.00 | 0.00 | 0.00 | 37 | 1012.2 |
| 20260507081015 | 67 | 263 | 5.2 | 11.3 | 0.00 | 0.00 | 0.00 | 38 | 1012.1 |
| 20260507080520 | 67 | 261 | 7.8 | 11.3 | 0.00 | 0.00 | 0.00 | 38 | 1012.1 |
| 20260507080019 | 68 | 237 | 4.3 | 9.6 | 0.00 | 0.00 | 0.00 | 38 | 1012.1 |
| 20260507075513 | 68 | 249 | 6.1 | 9.6 | 0.00 | 0.00 | 0.00 | 37 | 1012.1 |
| 20260507075012 | 68 | 244 | 5.2 | 13.0 | 0.00 | 0.00 | 0.00 | 37 | 1012.1 |
| 20260507074511 | 68 | 267 | 6.1 | 13.0 | 0.00 | 0.00 | 0.00 | 37 | 1012.1 |
| 20260507074014 | 67 | 284 | 4.3 | 8.7 | 0.00 | 0.00 | 0.00 | 38 | 1012.1 |
| 20260507073511 | 68 | 227 | 5.2 | 8.7 | 0.00 | 0.00 | 0.00 | 38 | 1012.1 |
| 20260507073011 | 68 | 279 | 5.2 | 10.4 | 0.00 | 0.00 | 0.00 | 38 | 1012.0 |
| 20260507072511 | 68 | 230 | 6.1 | 12.2 | 0.00 | 0.00 | 0.00 | 38 | 1012.1 |
| 20260507072010 | 68 | 249 | 6.1 | 12.2 | 0.00 | 0.00 | 0.00 | 38 | 1012.1 |